DW8013 Weather Reports


time (UTC)temp
C
wind
direction
speed
KPH
gust
KPH
rain 1hr
cm
rain 24hr
cm
rain mn
cm
humidity
%
barometer
mb
20260505061519 11 5 0.0 0.0 0.00 0.00 0.00 85 1011.4
20260505060034 10 5 0.0 0.0 0.00 0.00 0.00 85 1011.2
20260505054517 10 5 0.0 0.0 0.00 0.00 0.00 85 1011.3
20260505053012 11 5 0.0 0.0 0.00 0.00 0.00 86 1011.3
20260505051518 11 5 0.0 0.0 0.00 0.00 0.00 86 1011.5
20260505041507 10 5 0.0 0.0 0.00 0.00 0.00 87 1011.8
20260505040004 11 5 0.0 0.0 0.00 0.00 0.00 88 1011.9
20260505034501 11 5 0.0 0.0 0.00 0.00 0.00 89 1011.9
20260505033100 11 5 0.0 0.0 0.00 0.00 0.00 89 1012.1
20260505031601 11 5 0.0 0.0 0.00 0.00 0.00 89 1012.3
20260505030059 11 5 0.0 0.0 0.00 0.00 0.00 90 1012.4
20260505024607 11 5 0.0 0.0 0.00 0.00 0.00 90 1012.4
20260505023102 11 5 0.0 0.0 0.00 0.00 0.00 90 1012.3
20260505021558 11 5 0.0 0.0 0.00 0.00 0.00 91 1012.4
20260505020057 11 5 0.0 0.0 0.00 0.00 0.00 91 1012.4
20260505014556 11 5 0.0 0.0 0.00 0.00 0.00 91 1012.2
20260505013116 11 5 0.0 0.0 0.00 0.00 0.00 91 1012.3
20260505011607 11 5 0.0 0.0 0.00 0.00 0.00 91 1012.2
20260505010110 11 5 0.0 0.0 0.00 0.00 0.00 91 1012.1
20260505004553 11 5 0.0 0.0 0.00 0.00 0.00 90 1012.2
20260505003056 11 5 0.0 0.0 0.00 0.00 0.00 90 1012.5
20260505001550 11 5 0.0 0.0 0.00 0.00 0.00 90 1012.6
20260505000057 11 5 0.0 0.0 0.00 0.00 0.00 90 1012.9
20260504234547 11 5 0.0 0.0 0.00 0.00 0.00 90 1013.1
20260504233049 11 5 0.0 0.0 0.00 0.00 0.00 89 1013.2
20260504231544 11 5 0.0 0.0 0.00 0.00 0.00 89 1013.3
20260504230043 11 5 0.0 0.0 0.00 0.00 0.00 89 1013.4
20260504224540 11 5 0.0 0.0 0.00 0.00 0.00 89 1013.4
20260504223047 11 5 0.0 0.0 0.00 0.00 0.00 89 1013.2
20260504221538 11 5 0.0 0.0 0.00 0.00 0.00 88 1013.2
20260504220042 11 5 0.0 0.0 0.00 0.00 0.00 88 1013.3
20260504214542 11 5 0.0 0.0 0.00 0.00 0.00 88 1013.4
20260504213040 11 5 0.0 0.0 0.00 0.00 0.00 88 1013.4
20260504211537 12 5 0.0 0.0 0.00 0.00 0.00 88 1013.6
20260504210035 12 5 0.0 0.0 0.00 0.00 0.00 89 1013.8
20260504204533 12 5 0.0 0.0 0.00 0.00 0.00 88 1013.8
20260504203036 12 5 0.0 0.0 0.00 0.00 0.00 88 1013.8
20260504201532 12 5 0.0 0.0 0.00 0.00 0.00 88 1013.7
20260504200032 12 5 0.0 0.0 0.00 0.00 0.00 88 1013.6
20260504194532 12 5 0.0 0.0 0.00 0.00 0.00 87 1013.4
20260504193031 12 5 0.0 0.0 0.00 0.00 0.00 87 1013.3
20260504191530 12 5 0.0 0.0 0.00 0.00 0.00 87 1013.2
20260504190030 12 5 0.0 0.0 0.00 0.00 0.00 87 1013.0
20260504184533 12 5 0.0 0.0 0.00 0.00 0.00 87 1012.8
20260504183028 12 5 0.0 0.0 0.00 0.00 0.00 86 1012.8
20260504181535 13 5 0.0 0.0 0.00 0.00 0.00 86 1012.7
20260504180030 13 5 0.0 0.0 0.00 0.00 0.00 85 1012.6
20260504174527 13 5 0.0 0.0 0.00 0.00 0.00 83 1012.6
20260504173028 14 5 0.0 0.0 0.00 0.00 0.00 82 1012.5
20260504171528 15 5 0.0 0.0 0.00 0.00 0.00 80 1012.7
20260504120121 19 5 0.0 0.0 0.00 0.79 0.00 72 1013.3
20260504081539 16 5 0.0 0.0 0.00 0.79 0.00 82 1013.5